Вернуться в каталог

AETHER-7

АктивенСвязьSSO
NORAD 67378·PAYLOAD·🇨🇦 Canada

Запущен Jan 11, 2026 с Vandenberg Space Force Base

Loading…

Ближайшие Пролёты (ближайшие 24 часа)

TLE

СвежийSource: Space-Track

Эпоха: Sep 14, 2026, 05:22 UTC

1 67378U 26004R   26257.22405826  .00001216  00000-0  14365-3 0  9996
2 67378  97.8076 254.0713 0002895 167.0033 193.1258 14.86476350 36503

Отслеживайте AETHER-7 в реальном времени с AllMySat

Download on the App Store